Location: Newark
(13.6797°N, 8.5297°E)
Time: 19:07:48
(UTC+00:00)

SR - Pass Details

Date: 27 January 2020
Orbit: 575 x 881 km, 66.7° (Epoch: 19 February)

Event Time Altitude Azimuth Distance (km) Brightness Sun altitude
Rises 20:31:01 0° 220° (SW) 3,265 ? -44.8°
Enters shadow 20:33:14 - 227° (SW) 2,484 ? -45.3°
Reaches altitude 10° 20:33:33 10° 228° (SW) 2,381 - -45.4°
Maximum altitude 20:38:34 35° 294° (WNW) 1,319 - -46.6°
Drops below altitude 10° 20:43:52 10° 359° (N) 2,508 - -47.8°
Sets 20:46:36 0° 8° (N) 3,462 - -48.5°
